GW1618 Weather Reports


time (UTC)temp
C
wind
direction
speed
KPH
gust
KPH
rain 1hr
cm
rain 24hr
cm
rain mn
cm
humidity
%
barometer
mb
20260506185308 13 248 9.7 22.5 0.00 0.00 0.00 70 1020.2
20260506184808 13 194 9.7 22.5 0.00 0.00 0.00 71 1020.1
20260506184312 13 150 11.3 22.5 0.00 0.00 0.00 71 1020.1
20260506184055 13 229 11.3 22.5 0.00 0.00 0.00 71 1020.1
20260506183600 13 190 9.7 22.5 0.00 0.00 0.00 70 1020.1
20260506182809 13 210 9.7 22.5 0.00 0.00 0.00 70 1020.1
20260506182311 13 255 9.7 19.3 0.00 0.00 0.00 70 1020.1
20260506181805 13 219 11.3 22.5 0.00 0.00 0.00 70 1019.9
20260506181306 13 244 12.9 22.5 0.00 0.00 0.00 70 1019.9
20260506180804 13 264 11.3 22.5 0.00 0.00 0.00 70 1019.9
20260506180304 13 221 11.3 20.9 0.00 0.00 0.00 68 1019.6
20260506175806 13 223 9.7 20.9 0.00 0.00 0.00 68 1019.6
20260506175306 13 204 9.7 22.5 0.00 0.00 0.00 68 1019.6
20260506174802 13 219 9.7 22.5 0.00 0.00 0.00 68 1019.7
20260506174301 13 256 9.7 20.9 0.00 0.00 0.00 69 1019.7
20260506173802 13 265 11.3 22.5 0.00 0.00 0.00 69 1019.7
20260506173301 13 231 9.7 22.5 0.00 0.00 0.00 68 1019.6
20260506172801 13 220 9.7 17.7 0.00 0.00 0.00 68 1019.6
20260506172306 13 260 9.7 17.7 0.00 0.00 0.00 68 1019.6
20260506172050 13 200 8.0 14.5 0.00 0.00 0.00 68 1019.7
20260506171301 13 275 6.4 17.7 0.00 0.00 0.00 69 1019.7
20260506171048 13 255 8.0 17.7 0.00 0.00 0.00 69 1019.7
20260506170304 13 277 6.4 16.1 0.00 0.00 0.00 68 1019.7
20260506165801 13 240 6.4 14.5 0.00 0.00 0.00 69 1019.7
20260506165552 13 223 6.4 12.9 0.00 0.00 0.00 70 1019.7
20260506165121 13 247 6.4 17.7 0.00 0.00 0.00 70 1019.7
20260506164303 13 233 6.4 17.7 0.00 0.00 0.00 70 1019.7
20260506163807 13 221 8.0 19.3 0.00 0.00 0.00 71 1019.7
20260506162739 12 258 8.0 17.7 0.00 0.00 0.00 71 1019.6
20260506162233 12 223 11.3 24.1 0.00 0.00 0.00 71 1019.6
20260506161732 12 215 9.7 24.1 0.00 0.00 0.00 72 1019.4
20260506161228 12 239 8.0 17.7 0.00 0.00 0.00 72 1019.4
20260506160955 12 261 8.0 17.7 0.00 0.00 0.00 72 1019.4
20260506160213 12 205 8.0 17.7 0.00 0.00 0.00 73 1019.2
20260506155711 12 206 8.0 17.7 0.00 0.00 0.00 73 1019.2
20260506155211 12 236 6.4 17.7 0.00 0.00 0.00 74 1019.2
20260506154712 12 275 4.8 11.3 0.00 0.00 0.00 75 1019.3
20260506154209 12 245 4.8 11.3 0.00 0.00 0.00 75 1019.3
20260506153710 12 244 4.8 8.0 0.00 0.00 0.00 77 1019.3
20260506153209 12 209 4.8 9.7 0.00 0.00 0.00 77 1019.2
20260506152712 12 208 4.8 9.7 0.00 0.00 0.00 77 1019.2
20260506152210 11 220 4.8 9.7 0.00 0.00 0.00 78 1019.2
20260506151709 11 217 4.8 9.7 0.00 0.00 0.00 79 1019.4
20260506151448 11 280 4.8 9.7 0.00 0.00 0.00 79 1019.4
20260506150705 11 267 4.8 9.7 0.00 0.00 0.00 79 1019.4
20260506150514 11 250 6.4 11.3 0.00 0.00 0.00 79 1019.2
20260506145203 11 236 6.4 11.3 0.00 0.00 0.00 80 1019.2
20260506144658 11 233 6.4 11.3 0.00 0.00 0.00 80 1019.2
20260506144155 11 203 6.4 14.5 0.00 0.00 0.00 80 1019.2
20260506143644 11 238 6.4 14.5 0.00 0.00 0.00 80 1019.2
20260506143134 11 239 6.4 14.5 0.00 0.00 0.00 80 1019.1
20260506142624 11 239 8.0 17.7 0.00 0.00 0.00 80 1019.1
20260506142125 11 248 8.0 17.7 0.00 0.00 0.00 80 1019.1
20260506141612 11 237 8.0 17.7 0.00 0.00 0.00 80 1018.7
20260506141111 11 257 8.0 17.7 0.00 0.00 0.00 80 1018.7
20260506140605 11 245 6.4 16.1 0.00 0.00 0.00 80 1018.8
20260506140119 11 277 4.8 11.3 0.00 0.00 0.00 81 1018.8
20260506135046 11 261 6.4 16.1 0.00 0.00 0.00 81 1018.8
20260506134545 11 223 4.8 14.5 0.00 0.00 0.00 81 1018.8
20260506134111 11 231 4.8 14.5 0.00 0.00 0.00 82 1018.8
20260506133324 11 240 6.4 14.5 0.00 0.00 0.00 82 1018.8
20260506132543 11 268 4.8 14.5 0.00 0.00 0.00 82 1018.8
20260506132038 11 249 4.8 11.3 0.00 0.00 0.00 82 1018.8
20260506131537 11 257 4.8 9.7 0.00 0.00 0.00 82 1018.8
20260506131037 11 246 6.4 14.5 0.00 0.00 0.00 82 1018.8
20260506130536 11 247 6.4 14.5 0.00 0.00 0.00 82 1018.5
20260506130343 11 261 4.8 9.7 0.00 0.00 0.00 84 1018.5
20260506125032 11 190 4.8 9.7 0.00 0.00 0.00 83 1018.6
20260506124531 11 251 4.8 9.7 0.00 0.00 0.00 83 1018.6
20260506124030 11 266 4.8 6.4 0.00 0.00 0.00 83 1018.6
20260506123530 11 272 4.8 9.7 0.00 0.00 0.00 83 1018.4
20260506123029 11 293 6.4 11.3 0.00 0.00 0.00 83 1018.4
20260506122818 11 285 4.8 11.3 0.00 0.00 0.00 82 1018.4
20260506122027 11 261 6.4 11.3 0.00 0.00 0.00 82 1018.3
20260506121524 11 270 6.4 12.9 0.00 0.00 0.00 82 1018.3
20260506121011 11 247 6.4 12.9 0.00 0.00 0.00 82 1018.3
20260506120509 11 231 6.4 11.3 0.00 0.00 0.00 82 1018.2
20260506120007 11 238 6.4 11.3 0.00 0.00 0.00 82 1018.2
20260506115503 11 216 4.8 11.3 0.00 0.00 0.00 82 1018.2
20260506114957 11 223 3.2 9.7 0.00 0.00 0.00 82 1018.1
20260506114440 11 220 4.8 8.0 0.00 0.00 0.00 82 1018.1
20260506113942 11 237 4.8 8.0 0.00 0.00 0.00 82 1018.1
20260506113431 11 253 3.2 8.0 0.00 0.00 0.00 82 1018.0
20260506113217 11 233 3.2 8.0 0.00 0.00 0.00 82 1018.0
20260506112428 11 212 4.8 8.0 0.00 0.00 0.00 82 1018.0
20260506112214 11 252 4.8 8.0 0.00 0.00 0.00 82 1018.0
20260506111428 11 256 3.2 8.0 0.00 0.00 0.00 82 1018.0
20260506111214 11 259 3.2 4.8 0.00 0.00 0.00 82 1018.0
20260506110429 11 252 3.2 6.4 0.00 0.00 0.00 82 1018.0
20260506105918 11 251 3.2 6.4 0.00 0.00 0.00 82 1018.0
20260506105417 11 269 3.2 6.4 0.00 0.00 0.00 82 1018.0
20260506104917 11 249 3.2 6.4 0.00 0.00 0.00 82 1017.7
20260506104704 11 245 3.2 6.4 0.00 0.00 0.00 82 1017.7
20260506103918 11 233 3.2 6.4 0.00 0.00 0.00 83 1017.7
20260506103418 11 238 3.2 6.4 0.00 0.00 0.00 83 1017.6
20260506103159 11 223 3.2 8.0 0.00 0.00 0.00 83 1017.6
20260506102405 11 261 3.2 8.0 0.00 0.00 0.00 83 1017.6
20260506101906 11 260 4.8 9.7 0.00 0.00 0.00 83 1017.6
20260506101406 11 218 4.8 9.7 0.00 0.00 0.00 83 1017.6
20260506100904 11 263 4.8 8.0 0.00 0.00 0.00 82 1017.6
20260506100722 11 248 3.2 8.0 0.00 0.00 0.00 82 1017.5
20260506095402 11 231 4.8 8.0 0.00 0.00 0.00 81 1017.5
20260506094902 11 216 4.8 8.0 0.00 0.00 0.00 81 1017.3
20260506094400 11 258 4.8 8.0 0.00 0.00 0.00 81 1017.3
20260506093852 11 202 4.8 8.0 0.00 0.00 0.00 81 1017.3
20260506093643 11 257 4.8 8.0 0.00 0.00 0.00 81 1017.3
20260506093139 11 259 4.8 8.0 0.00 0.00 0.00 80 1017.3
20260506092642 11 242 4.8 8.0 0.00 0.00 0.00 80 1017.3
20260506091846 11 237 4.8 9.7 0.00 0.00 0.00 80 1017.2
20260506091344 11 263 4.8 9.7 0.00 0.00 0.00 80 1017.2
20260506091131 11 261 3.2 8.0 0.00 0.00 0.00 80 1017.2
20260506090628 11 201 4.8 9.7 0.00 0.00 0.00 80 1017.4
20260506085841 11 254 4.8 9.7 0.00 0.00 0.00 80 1017.4
20260506085340 11 260 3.2 6.4 0.00 0.00 0.00 80 1017.4
20260506084842 11 274 1.6 4.8 0.00 0.00 0.00 81 1017.1
20260506084339 11 300 1.6 4.8 0.00 0.00 0.00 81 1017.1
20260506084123 11 291 1.6 4.8 0.00 0.00 0.00 81 1017.1
20260506083341 11 234 1.6 4.8 0.00 0.00 0.00 82 1017.0
20260506082831 11 219 1.6 4.8 0.00 0.00 0.00 82 1017.0
20260506082330 11 262 1.6 3.2 0.00 0.00 0.00 83 1017.0
20260506081829 11 241 1.6 4.8 0.00 0.00 0.00 84 1017.0
20260506081331 11 243 1.6 4.8 0.00 0.00 0.00 84 1017.0
20260506080830 11 273 1.6 4.8 0.00 0.00 0.00 83 1017.0
20260506080331 11 201 1.6 4.8 0.00 0.00 0.00 84 1016.8
20260506073304 11 290 0.0 1.6 0.00 0.00 0.00 85 1016.5
20260506072801 11 290 0.0 1.6 0.00 0.00 0.00 84 1016.5
20260506072306 11 290 0.0 1.6 0.00 0.00 0.00 84 1016.5
20260506071809 11 290 0.0 3.2 0.00 0.00 0.00 84 1016.5
20260506071304 11 290 1.6 3.2 0.00 0.00 0.00 84 1016.5
20260506071041 11 293 1.6 3.2 0.00 0.00 0.00 82 1016.5
20260506070303 11 285 1.6 3.2 0.00 0.00 0.00 82 1016.2
20260506062233 12 350 1.6 3.2 0.00 0.00 0.00 80 1016.0
20260506061732 12 350 1.6 3.2 0.00 0.00 0.00 80 1016.0
20260506061228 12 328 0.0 3.2 0.00 0.00 0.00 80 1016.0
20260506060737 12 273 0.0 3.2 0.00 0.00 0.00 79 1016.0
20260506051203 13 340 3.2 4.8 0.00 0.00 0.00 77 1015.6
20260506050936 13 315 1.6 4.8 0.00 0.00 0.00 76 1015.6
20260506050155 13 270 1.6 3.2 0.00 0.00 0.00 76 1015.5
20260506044642 13 39 1.6 3.2 0.00 0.00 0.00 74 1015.5
20260506044143 13 310 1.6 4.8 0.00 0.00 0.00 74 1015.5
20260506043639 13 9 1.6 4.8 0.00 0.00 0.00 73 1015.5
20260506043137 14 327 1.6 4.8 0.00 0.00 0.00 73 1015.5
20260506042913 14 222 3.2 11.3 0.00 0.00 0.00 73 1015.5
20260506042136 14 242 4.8 11.3 0.00 0.00 0.00 73 1015.5
20260506041633 14 279 4.8 8.0 0.00 0.00 0.00 72 1015.4
20260506041133 14 300 6.4 9.7 0.00 0.00 0.00 72 1015.4
20260506040635 14 299 6.4 11.3 0.00 0.00 0.00 72 1015.4
20260506040135 14 289 6.4 11.3 0.00 0.00 0.00 72 1015.0
20260506035632 15 303 6.4 9.7 0.00 0.00 0.00 72 1015.0
20260506035131 15 296 8.0 14.5 0.00 0.00 0.00 71 1015.0
20260506034632 15 314 6.4 14.5 0.00 0.00 0.00 71 1014.9
20260506034133 15 296 4.8 11.3 0.00 0.00 0.00 70 1014.9
20260506033634 15 273 4.8 6.4 0.00 0.00 0.00 70 1014.9
20260506033129 15 304 4.8 11.3 0.00 0.00 0.00 70 1014.7
20260506032630 15 321 6.4 11.3 0.00 0.00 0.00 69 1014.7
20260506032123 15 297 8.0 11.3 0.00 0.00 0.00 69 1014.7
20260506031615 16 318 8.0 11.3 0.00 0.00 0.00 68 1014.5
20260506031106 16 300 8.0 11.3 0.00 0.00 0.00 68 1014.5
20260506030559 16 306 6.4 12.9 0.00 0.00 0.00 67 1014.5
20260506030058 16 310 6.4 11.3 0.00 0.00 0.00 66 1014.5
20260506025548 16 304 8.0 12.9 0.00 0.00 0.00 65 1014.5
20260506025038 16 263 8.0 14.5 0.00 0.00 0.00 65 1014.5
20260506024534 16 273 8.0 14.5 0.00 0.00 0.00 64 1014.5
20260506024026 17 277 6.4 11.3 0.00 0.00 0.00 63 1014.5
20260506023521 17 298 8.0 11.3 0.00 0.00 0.00 64 1014.5
20260506023303 17 308 8.0 16.1 0.00 0.00 0.00 64 1014.5
20260506022515 17 302 8.0 16.1 0.00 0.00 0.00 63 1014.5
20260506022017 17 281 9.7 14.5 0.00 0.00 0.00 64 1014.4
20260506021515 17 304 11.3 16.1 0.00 0.00 0.00 64 1014.4
20260506021014 17 303 12.9 19.3 0.00 0.00 0.00 64 1014.4
20260506020513 17 310 11.3 19.3 0.00 0.00 0.00 63 1014.4
20260506020010 17 322 8.0 14.5 0.00 0.00 0.00 62 1014.4
20260506015753 17 302 6.4 16.1 0.00 0.00 0.00 62 1014.4
20260506015008 17 329 9.7 16.1 0.00 0.00 0.00 63 1014.4
20260506014751 17 329 8.0 16.1 0.00 0.00 0.00 62 1014.4
20260506014250 18 285 6.4 12.9 0.00 0.00 0.00 61 1014.4
20260506013757 18 328 4.8 8.0 0.00 0.00 0.00 61 1014.4
20260506013006 18 239 3.2 6.4 0.00 0.00 0.00 61 1014.4
20260506012753 18 206 3.2 6.4 0.00 0.00 0.00 60 1014.4
20260506012002 18 208 3.2 6.4 0.00 0.00 0.00 61 1014.4
20260506011455 18 203 3.2 8.0 0.00 0.00 0.00 62 1014.4
20260506011006 18 243 4.8 9.7 0.00 0.00 0.00 63 1014.4
20260506005944 17 140 6.4 9.7 0.00 0.00 0.00 63 1014.4
20260506005444 17 211 6.4 9.7 0.00 0.00 0.00 63 1014.4
20260506004942 17 161 6.4 11.3 0.00 0.00 0.00 64 1014.5
20260506004446 17 207 6.4 11.3 0.00 0.00 0.00 64 1014.5
20260506003942 17 254 6.4 11.3 0.00 0.00 0.00 64 1014.5
20260506003441 17 248 6.4 11.3 0.00 0.00 0.00 64 1014.5
20260506002942 17 218 6.4 17.7 0.00 0.00 0.00 64 1014.5
20260506002440 17 203 6.4 17.7 0.00 0.00 0.00 64 1014.5
20260506001939 17 204 4.8 14.5 0.00 0.00 0.00 64 1014.6
20260506001442 17 184 6.4 14.5 0.00 0.00 0.00 64 1014.6
20260506000933 17 235 8.0 16.1 0.00 0.00 0.00 64 1014.6
20260506000432 17 198 6.4 16.1 0.00 0.00 0.00 65 1014.8
20260505235932 17 190 6.4 11.3 0.00 0.00 0.00 64 1014.8
20260505235431 17 203 4.8 11.3 0.00 0.00 0.00 64 1014.8
20260505234929 17 194 4.8 11.3 0.00 0.00 0.00 65 1015.0
20260505234434 16 203 6.4 11.3 0.00 0.00 0.00 65 1015.0
20260505233932 16 194 6.4 11.3 0.00 0.00 0.00 66 1015.0
20260505233432 16 188 8.0 16.1 0.00 0.00 0.00 67 1015.1
20260505232930 16 340 8.0 16.1 0.00 0.00 0.00 68 1015.1
20260505232428 16 342 8.0 12.9 0.00 0.00 0.00 68 1015.1
20260505231930 16 331 8.0 14.5 0.00 0.00 0.00 68 1015.4
20260505231429 16 305 9.7 14.5 0.00 0.00 0.00 69 1015.4
20260505230930 16 270 8.0 14.5 0.00 0.00 0.00 68 1015.4
20260505230429 16 295 8.0 14.5 0.00 0.00 0.00 69 1015.5
20260505225929 16 313 8.0 14.5 0.00 0.00 0.00 68 1015.5
20260505225429 16 285 8.0 16.1 0.00 0.00 0.00 68 1015.5
20260505225227 16 275 6.4 16.1 0.00 0.00 0.00 69 1015.5
20260505224432 16 311 6.4 11.3 0.00 0.00 0.00 70 1015.5
20260505223932 16 295 6.4 11.3 0.00 0.00 0.00 69 1015.5
20260505223431 16 314 6.4 12.9 0.00 0.00 0.00 70 1015.5
20260505222929 15 255 8.0 16.1 0.00 0.00 0.00 70 1015.5
20260505222717 15 328 9.7 16.1 0.00 0.00 0.00 71 1015.5
20260505221929 15 326 9.7 16.1 0.00 0.00 0.00 71 1015.6
20260505221430 15 283 11.3 17.7 0.00 0.00 0.00 71 1015.6
20260505220929 16 9 8.0 17.7 0.00 0.00 0.00 69 1015.6
20260505220430 16 291 3.2 8.0 0.00 0.00 0.00 68 1015.7
20260505215929 16 200 4.8 9.7 0.00 0.00 0.00 67 1015.7
20260505215427 16 240 4.8 9.7 0.00 0.00 0.00 68 1015.7
20260505214918 16 268 4.8 9.7 0.00 0.00 0.00 68 1015.8
20260505214420 16 323 4.8 9.7 0.00 0.00 0.00 68 1015.8
20260505213920 16 231 3.2 6.4 0.00 0.00 0.00 68 1015.8
20260505213425 16 231 3.2 6.4 0.00 0.00 0.00 69 1015.9
20260505212926 15 302 4.8 6.4 0.00 0.00 0.00 69 1015.9
20260505212654 15 306 4.8 9.7 0.00 0.00 0.00 69 1015.9
20260505211917 16 287 3.2 9.7 0.00 0.00 0.00 68 1015.9
20260505211416 16 245 3.2 8.0 0.00 0.00 0.00 68 1015.9
20260505210939 16 306 4.8 11.3 0.00 0.00 0.00 68 1015.9
20260505205903 15 205 4.8 9.7 0.00 0.00 0.00 68 1016.0
20260505205401 15 220 4.8 6.4 0.00 0.00 0.00 68 1016.0
20260505205147 15 173 3.2 6.4 0.00 0.00 0.00 68 1016.0
20260505204401 15 192 3.2 6.4 0.00 0.00 0.00 68 1016.0
20260505203901 15 204 3.2 9.7 0.00 0.00 0.00 68 1016.0
20260505203649 15 298 3.2 9.7 0.00 0.00 0.00 68 1016.0
20260505202901 15 229 3.2 8.0 0.00 0.00 0.00 68 1016.0
20260505202405 15 202 4.8 9.7 0.00 0.00 0.00 68 1016.0
20260505202144 15 281 4.8 9.7 0.00 0.00 0.00 69 1015.9
20260505201404 15 277 4.8 9.7 0.00 0.00 0.00 69 1015.9
20260505200904 15 267 3.2 11.3 0.00 0.00 0.00 70 1015.9
20260505200404 15 232 4.8 11.3 0.00 0.00 0.00 69 1016.0
20260505200148 15 223 6.4 11.3 0.00 0.00 0.00 69 1016.0
20260505195405 15 200 4.8 11.3 0.00 0.00 0.00 70 1016.0
20260505195151 15 232 4.8 11.3 0.00 0.00 0.00 69 1016.0
20260505194407 15 200 3.2 9.7 0.00 0.00 0.00 70 1016.0
20260505193905 15 225 3.2 8.0 0.00 0.00 0.00 72 1016.0
20260505193357 15 335 4.8 9.7 0.00 0.00 0.00 72 1016.0
20260505192844 15 295 4.8 8.0 0.00 0.00 0.00 71 1016.0
20260505192339 14 229 6.4 11.3 0.00 0.00 0.00 72 1016.0
20260505191841 14 204 8.0 16.1 0.00 0.00 0.00 71 1015.9
20260505191341 14 229 8.0 16.1 0.00 0.00 0.00 71 1015.9
20260505190900 14 271 4.8 14.5 0.00 0.00 0.00 70 1015.9
20260505185836 14 223 6.4 9.7 0.00 0.00 0.00 71 1016.0